Back to catalog

YAOGAN 11 DEB

AliveMilitarySSO
NORAD 38175·DEBRIS·🇨🇳 China

Launched Sep 22, 2010 from Jiuquan Satellite Launch Center

Loading…

Next Passes (next 24 hours)

TLE

FreshSource: Space-Track

Epoch: Sep 13, 2026, 04:20 UTC

1 38175U 10047E   26256.18076085  .00001079  00000-0  26541-3 0  9990
2 38175  98.0913 336.7204 0165938 329.9998  29.1765 14.46336769275690

Track YAOGAN 11 DEB in real time with AllMySat

Download on the App Store